• In Czech Republic
  • List of Countries
  • For 7 days
  • Water Temperature
  • Satellite Maps
  • Weather Map
  • Weather Widgets
  • user-avatar
    Login

    Hourly Weather Vatican

    Today, 25 February, Sunday

    Time Temperature Precipitation Wind Pressure Humidity
    00:00 +9°C° 0.1 mm 2 mps 754 mmHg 88%
    01:00 +8°C° 0 mm 3 mps 754 mmHg 87%
    02:00 +8°C° 0.1 mm 3 mps 753 mmHg 87%
    03:00 +8°C° 0.1 mm 3 mps 753 mmHg 87%
    04:00 +8°C° 0.1 mm 3 mps 753 mmHg 87%
    05:00 +7°C° 0.2 mm 3 mps 753 mmHg 86%
    06:00 +7°C° 0.2 mm 3 mps 753 mmHg 84%
    07:00 +6°C° 0 mm 4 mps 753 mmHg 83%
    08:00 +8°C° 0.3 mm 3 mps 753 mmHg 77%
    09:00 +10°C° 0.3 mm 3 mps 753 mmHg 72%
    10:00 +11°C° 0.3 mm 3 mps 753 mmHg 66%
    11:00 +13°C° 0.2 mm 2 mps 752 mmHg 63%
    12:00 +14°C° 0.2 mm 2 mps 752 mmHg 61%
    13:00 +14°C° 0.2 mm 1 mps 752 mmHg 58%
    14:00 +14°C° 0.4 mm 2 mps 752 mmHg 62%
    15:00 +13°C° 0.4 mm 2 mps 751 mmHg 65%
    16:00 +13°C° 0.4 mm 2 mps 751 mmHg 69%
    17:00 +11°C° 0.5 mm 3 mps 751 mmHg 72%
    18:00 +10°C° 0.5 mm 3 mps 751 mmHg 75%
    19:00 +9°C° 0.5 mm 3 mps 751 mmHg 78%
    20:00 +9°C° 0.4 mm 3 mps 751 mmHg 78%
    21:00 +8°C° 0.4 mm 4 mps 751 mmHg 78%
    22:00 +8°C° 0.4 mm 4 mps 751 mmHg 79%
    23:00 +7°C° 1.4 mm 5 mps 751 mmHg 79%

    Tomorrow, 26 February, Monday

    Time Temperature Precipitation Wind Pressure Humidity
    00:00 +7°C° 1.4 mm 6 mps 751 mmHg 79%
    01:00 +5°C° 1.4 mm 6 mps 751 mmHg 80%
    02:00 +5°C° 2.2 mm 6 mps 751 mmHg 83%
    03:00 +4°C° 2.2 mm 7 mps 750 mmHg 86%
    04:00 +3°C° 2.2 mm 7 mps 750 mmHg 90%
    05:00 +3°C° 0.4 mm 7 mps 750 mmHg 89%
    06:00 +1°C° 0.4 mm 8 mps 750 mmHg 88%
    07:00 +1°C° 0.4 mm 8 mps 750 mmHg 88%
    08:00 +1°C° 0.1 mm 8 mps 751 mmHg 84%
    09:00 +1°C° 0.1 mm 8 mps 751 mmHg 81%
    10:00 +1°C° 0.1 mm 8 mps 751 mmHg 78%
    11:00 +2°C° 0 mm 8 mps 752 mmHg 74%
    12:00 +4°C° 0 mm 8 mps 752 mmHg 71%
    13:00 +4°C° 0 mm 8 mps 752 mmHg 68%
    14:00 +4°C° 0 mm 8 mps 752 mmHg 67%
    15:00 +4°C° 0 mm 8 mps 752 mmHg 67%
    16:00 +2°C° 0 mm 9 mps 752 mmHg 66%
    17:00 +1°C° 0 mm 9 mps 753 mmHg 68%
    18:00 0°C° 0 mm 8 mps 753 mmHg 70%
    19:00 -1°C° 0 mm 8 mps 753 mmHg 71%
    20:00 -2°C° 0 mm 8 mps 753 mmHg 71%
    21:00 -2°C° 0 mm 7 mps 754 mmHg 71%
    22:00 -3°C° 0 mm 7 mps 754 mmHg 70%
    23:00 -3°C° 0 mm 7 mps 754 mmHg 70%

    Day after tomorrow, 27 February, Tuesday

    Time Temperature Precipitation Wind Pressure Humidity
    00:00 -3°C° 0 mm 6 mps 754 mmHg 69%
    01:00 -4°C° 0 mm 6 mps 754 mmHg 69%
    02:00 -4°C° 0 mm 6 mps 754 mmHg 67%
    03:00 -4°C° 0 mm 6 mps 754 mmHg 66%
    04:00 -4°C° 0 mm 5 mps 754 mmHg 65%
    05:00 -4°C° 0 mm 5 mps 754 mmHg 63%
    06:00 -4°C° 0 mm 5 mps 754 mmHg 61%
    07:00 -3°C° 0 mm 4 mps 754 mmHg 60%
    08:00 -1°C° 0 mm 4 mps 754 mmHg 55%
    09:00 +1°C° 0 mm 3 mps 754 mmHg 51%
    10:00 +2°C° 0 mm 3 mps 754 mmHg 46%
    11:00 +3°C° 0 mm 3 mps 754 mmHg 44%
    12:00 +5°C° 0 mm 2 mps 754 mmHg 41%
    13:00 +6°C° 0 mm 2 mps 753 mmHg 38%
    14:00 +6°C° 0.1 mm 2 mps 753 mmHg 43%
    15:00 +6°C° 0.1 mm 2 mps 753 mmHg 48%
    16:00 +5°C° 0.1 mm 2 mps 753 mmHg 53%
    17:00 +5°C° 0.2 mm 2 mps 754 mmHg 58%
    18:00 +4°C° 0.2 mm 2 mps 754 mmHg 64%
    19:00 +3°C° 0.2 mm 3 mps 754 mmHg 70%
    20:00 +2°C° 0.1 mm 3 mps 755 mmHg 72%
    21:00 +2°C° 0.1 mm 3 mps 755 mmHg 74%
    22:00 +2°C° 0.1 mm 3 mps 755 mmHg 76%
    23:00 +1°C° 0 mm 3 mps 755 mmHg 76%

    28 February, Wednesday

    Time Temperature Precipitation Wind Pressure Humidity
    00:00 +1°C° 0 mm 3 mps 756 mmHg 77%
    01:00 0°C° 0 mm 3 mps 756 mmHg 77%
    02:00 -1°C° 0 mm 4 mps 756 mmHg 76%
    03:00 -1°C° 0 mm 4 mps 756 mmHg 75%
    04:00 -1°C° 0 mm 4 mps 756 mmHg 74%
    05:00 -2°C° 0 mm 4 mps 757 mmHg 72%
    06:00 -2°C° 0 mm 4 mps 757 mmHg 71%
    07:00 -2°C° 0 mm 4 mps 758 mmHg 70%
    08:00 +1°C° 0 mm 3 mps 758 mmHg 63%
    09:00 +2°C° 0 mm 3 mps 758 mmHg 56%
    10:00 +5°C° 0 mm 2 mps 759 mmHg 50%
    11:00 +6°C° 0 mm 2 mps 759 mmHg 45%
    12:00 +7°C° 0 mm 2 mps 759 mmHg 41%
    13:00 +7°C° 0 mm 2 mps 759 mmHg 37%
    14:00 +7°C° 0 mm 2 mps 759 mmHg 36%
    15:00 +8°C° 0 mm 2 mps 759 mmHg 35%
    16:00 +9°C° 0 mm 1 mps 759 mmHg 34%
    17:00 +7°C° 0 mm 2 mps 760 mmHg 37%
    18:00 +5°C° 0 mm 3 mps 760 mmHg 40%
    19:00 +4°C° 0 mm 3 mps 760 mmHg 43%
    20:00 +4°C° 0 mm 4 mps 760 mmHg 46%
    21:00 +4°C° 0 mm 4 mps 760 mmHg 50%
    22:00 +3°C° 0 mm 5 mps 761 mmHg 53%
    23:00 +3°C° 0 mm 6 mps 760 mmHg 57%

    1 March, Thursday

    Time Temperature Precipitation Wind Pressure Humidity
    00:00 +3°C° 0 mm 7 mps 760 mmHg 62%
    01:00 +2°C° 0 mm 8 mps 760 mmHg 66%
    02:00 +2°C° 0 mm 8 mps 759 mmHg 67%
    03:00 +2°C° 0 mm 9 mps 758 mmHg 68%
    04:00 +2°C° 0 mm 9 mps 757 mmHg 69%
    05:00 +2°C° 0.2 mm 9 mps 757 mmHg 71%
    06:00 +2°C° 0.2 mm 9 mps 757 mmHg 74%
    07:00 +2°C° 0.2 mm 10 mps 756 mmHg 76%
    08:00 +3°C° 0.1 mm 10 mps 756 mmHg 76%
    09:00 +5°C° 0.1 mm 10 mps 755 mmHg 75%
    10:00 +6°C° 0.1 mm 11 mps 755 mmHg 75%
    11:00 +6°C° 0.1 mm 11 mps 754 mmHg 75%
    12:00 +7°C° 0.1 mm 11 mps 753 mmHg 76%
    13:00 +7°C° 0.1 mm 11 mps 753 mmHg 77%
    14:00 +7°C° 0.1 mm 11 mps 752 mmHg 78%
    15:00 +7°C° 0.1 mm 11 mps 751 mmHg 80%
    16:00 +8°C° 0.1 mm 11 mps 751 mmHg 81%
    17:00 +8°C° 0.3 mm 10 mps 750 mmHg 82%
    18:00 +8°C° 0.3 mm 10 mps 750 mmHg 84%
    19:00 +8°C° 0.3 mm 9 mps 750 mmHg 85%
    20:00 +9°C° 0.5 mm 8 mps 750 mmHg 87%
    21:00 +9°C° 0.5 mm 7 mps 750 mmHg 88%
    22:00 +9°C° 0.5 mm 7 mps 750 mmHg 90%
    23:00 +9°C° 0.3 mm 6 mps 750 mmHg 91%

    2 March, Friday

    Time Temperature Precipitation Wind Pressure Humidity
    00:00 +9°C° 0.3 mm 5 mps 750 mmHg 92%
    01:00 +10°C° 0.3 mm 4 mps 750 mmHg 93%
    02:00 +10°C° 0.1 mm 4 mps 749 mmHg 93%
    03:00 +10°C° 0.1 mm 4 mps 749 mmHg 93%
    04:00 +8°C° 0.1 mm 4 mps 749 mmHg 92%
    05:00 +10°C° 0.1 mm 4 mps 749 mmHg 92%
    06:00 +10°C° 0.1 mm 4 mps 749 mmHg 91%
    07:00 +10°C° 0.1 mm 4 mps 749 mmHg 91%
    08:00 +11°C° 0.7 mm 4 mps 749 mmHg 90%
    09:00 +12°C° 0.7 mm 4 mps 749 mmHg 88%
    10:00 +13°C° 0.7 mm 4 mps 749 mmHg 87%
    11:00 +13°C° 0.6 mm 4 mps 749 mmHg 89%
    12:00 +13°C° 0.6 mm 4 mps 749 mmHg 91%
    13:00 +13°C° 0.6 mm 3 mps 748 mmHg 93%
    14:00 +13°C° 0.5 mm 4 mps 748 mmHg 90%
    15:00 +14°C° 0.5 mm 4 mps 748 mmHg 88%
    16:00 +14°C° 0.5 mm 4 mps 748 mmHg 85%
    17:00 +13°C° 0.3 mm 4 mps 748 mmHg 87%
    18:00 +13°C° 0.3 mm 4 mps 749 mmHg 88%
    19:00 +12°C° 0.3 mm 3 mps 749 mmHg 90%
    20:00 +12°C° 0.1 mm 4 mps 749 mmHg 90%
    21:00 +12°C° 0.1 mm 4 mps 750 mmHg 90%
    22:00 +12°C° 0.1 mm 4 mps 750 mmHg 91%
    23:00 +12°C° 0 mm 4 mps 750 mmHg 92%
    Show more